Hourly Data Report for May 02, 2019

MIRAMICHI RCS
NEW BRUNSWICK
Current Station Operator: ECCC - MSC

47°00'34.000" N
65°27'54.000" W
33.00 m
8100989
71744
ACQ

Download Data

Hourly Data (May 2019)
Hourly Data Report for May 2, 2019
TIME
LST
Temp Definition
°C
Dew Point Definition
°C
Rel Hum Definition
%
Precip. Amount Definition
mm

Wind Dir Definition
10's deg

Wind Spd Definition
km/h
Visibility Definition
km
Stn Press Definition
kPa
Hmdx Definition


Wind Chill Definition


Weather Definition


00:00 2.6 -7.5 47 0.0 26 10   101.95     LegendNANA
01:00 1.3 -7.1 53 0.0 29 9   101.94     LegendNANA
02:00 0.4 -6.4 60 0.0 29 9   101.87     LegendNANA
03:00 0.3 -6.6 60 0.0 22 8   101.85     LegendNANA
04:00 1.5 -7.6 51 0.0 28 2   101.84     LegendNANA
05:00 1.7 -7.5 50 0.0 32 5   101.84     LegendNANA
06:00 1.8 -6.4 55 0.0 29 4   101.88     LegendNANA
07:00 3.1 -6.8 48 0.0 32 3   101.93     LegendNANA
08:00 5.2 -6.6 42 0.0 2 8   101.94     LegendNANA
09:00 6.7 -5.6 41 0.0 5 9   101.96     LegendNANA
10:00 8.0 -4.5 41 0.0 8 7   101.95     LegendNANA
11:00 9.1 -4.7 37 0.0 12 10   101.92     LegendNANA
12:00 10.6 -3.6 37 0.0 16 8   101.87     LegendNANA
13:00 11.5 -3.6 35 0.0 6 7   101.85     LegendNANA
14:00 12.8 -2.8 34 0.0 6 7   101.84     LegendNANA
15:00 13.1 -1.6 36 0.0 12 10   101.80     LegendNANA
16:00 12.5 -1.8 37 0.0 7 16   101.78     LegendNANA
17:00 12.7 -1.5 37 0.0 7 16   101.83     LegendNANA
18:00 11.6 -1.0 42 0.0 6 12   101.85     LegendNANA
19:00 10.2 -1.1 46 0.0 12 12   101.91     LegendNANA
20:00 6.7 -1.7 55 0.0 12 10   101.96     LegendNANA
21:00 4.4 -2.4 61 0.0 12 7   102.03     LegendNANA
22:00 2.3 -2.7 70 0.0 11 9   102.02     LegendNANA
23:00 1.8 -2.3 74 0.0 5 4   102.01     LegendNANA

Notes on Data Quality.

Legend

  • E = Estimated
  • M = Missing
  • NA = Not Available*
  • [empty] = Indicates an unobserved value
Date modified: